This is the latest recevied weather packets stored in our database for station/object VK3BYD-3. If no packets are shown the sender has not sent any weather packets the latest 10 day(s).
| Time | Temp. | Humidity | Pressure | Rain* | Wind** | Luminosity | Snow |
|---|---|---|---|---|---|---|---|
| 1778202382 | 15.56° C | 81% | 1021.2 hPa | 0 mm | - | - | - |
| 1778201481 | 15° C | 83% | 1021.4 hPa | 0 mm | - | - | - |
| 1778200575 | 14.44° C | 83% | 1021.4 hPa | 0 mm | - | - | - |
| 1778199675 | 13.89° C | 85% | 1021.6 hPa | 0 mm | - | - | - |
| 1778198776 | 13.33° C | 86% | 1021.7 hPa | 0 mm | - | - | - |
| 1778197876 | 12.78° C | 87% | 1021.7 hPa | 0 mm | - | - | - |
| 1778196973 | 12.22° C | 91% | 1021.8 hPa | 0 mm | - | - | - |
| 1778196069 | 11.67° C | 91% | 1021.8 hPa | 0 mm | - | - | - |
| 1778195170 | 11.11° C | 91% | 1021.9 hPa | 0 mm | - | - | - |
| 1778194269 | 10.56° C | 92% | 1021.8 hPa | 0 mm | - | - | - |
| 1778193368 | 10.56° C | 92% | 1021.5 hPa | 0 mm | - | - | - |
| 1778192464 | 10° C | 92% | 1021.5 hPa | 0 mm | - | - | - |
| 1778191565 | 10° C | 92% | 1021.5 hPa | 0 mm | - | - | - |
| 1778190665 | 9.44° C | 92% | 1021.4 hPa | 0 mm | - | - | - |
| 1778189766 | 9.44° C | 92% | 1021.3 hPa | 0 mm | - | - | - |
| 1778188865 | 9.44° C | 92% | 1021 hPa | 0 mm | - | - | - |
| 1778187963 | 9.44° C | 91% | 1020.9 hPa | 0 mm | - | - | - |
| 1778187063 | 8.89° C | 91% | 1020.7 hPa | 0 mm | - | - | - |
| 1778186163 | 8.89° C | 90% | 1020.8 hPa | 0 mm | - | - | - |
| 1778185264 | 8.89° C | 91% | 1020.8 hPa | 0 mm | - | - | - |
| 1778184363 | 8.33° C | 91% | 1020.8 hPa | 0 mm | - | - | - |
| 1778183463 | 8.89° C | 90% | 1020.8 hPa | 0 mm | - | - | - |
| 1778182563 | 8.89° C | 89% | 1020.6 hPa | 0 mm | - | - | - |
| 1778181662 | 9.44° C | 89% | 1020.8 hPa | 0 mm | - | - | - |
| 1778180763 | 9.44° C | 89% | 1020.7 hPa | 0 mm | - | - | - |
* Rain latest hour (hover to see other rain measurements)
** Current wind speed in m/s (hover to see current wind gust speed)